Simultaneous Nadir Overpasses (SNOs) Predictions

Prediction of SNOs between LANDSAT-8 and METOP-B Satellite Orbit:

Table of predicted SNOs for the next 14.0 days since TLE Epoch: 2/15/2025
Index Date (LANDSAT-8) Time (LANDSAT-8) Lat,Lon (LANDSAT-8) SZA (LANDSAT-8 ) Date (METOP-B) Time (METOP-B) Lat,Lon (METOP-B) SZA (METOP-B ) Distance(km) Time Diff (sec)
1 02/15/2025 06:41:43 -81.44, -55.16 83.91 02/15/2025 06:40:53 -81.44, -55.24 83.94 1.23 50
2 02/15/2025 07:31:09 81.44, 112.59 96.10 02/15/2025 07:31:32 81.44, 112.77 96.12 2.92 23
3 02/18/2025 02:15:58 -81.43, 11.08 84.91 02/18/2025 02:15:26 -81.44, 11.10 84.92 0.84 32
4 02/18/2025 03:05:24 81.43, 178.81 95.09 02/18/2025 03:06:06 81.44, 178.69 95.10 1.92 42
5 02/20/2025 21:50:11 -81.44, 77.79 85.87 02/20/2025 21:49:58 -81.44, 77.72 85.89 1.24 13
6 02/20/2025 22:39:37 81.45,-114.51 94.13 02/20/2025 22:40:38 81.44,-114.70 94.13 3.13 61
7 02/23/2025 16:34:56 81.44, -23.43 93.13 02/23/2025 16:33:49 81.44, -23.61 93.08 2.97 67
8 02/23/2025 17:24:23 -81.44, 144.19 86.89 02/23/2025 17:24:29 -81.44, 144.22 86.89 0.46 6
9 02/26/2025 12:09:08 81.44, 43.03 92.10 02/26/2025 12:08:20 81.44, 43.16 92.09 2.30 48



Historial Predications of SNOs between LANDSAT-8 and METOP-B
